{"data":{"norad_id":48309,"intl_designator":"2021-036AK","name":"STARLINK-2517","alt_names":[],"object_type":"PAYLOAD","status":"ACTIVE","operator":null,"country":"US","launch_date":"2021-04-29","launch_site_code":"AFETR","launch_vehicle":null,"mission":null,"orbit_class":"UNKNOWN","rcs_meters":null,"size_class":null,"mass_kg":null,"dimensions":null,"purposes":["comms"],"wikipedia_slug":null,"has_3d_model":false,"image_url":null,"decayed_at":null,"tle_current":{"epoch":"2026-05-25T02:21:01.189152Z","epoch_age_seconds":66690,"freshness":"FRESH","line1":"1 48309U 21036AK  26145.09793043 -.00001742  00000+0 -46718-4 0  9994","line2":"2 48309  53.1586  93.2374 0001280  91.5644 268.5504 15.30186109279925","mean_motion":15.30186109,"eccentricity":0.000128,"inclination_deg":53.1586,"raan_deg":93.2374,"arg_perigee_deg":91.5644,"mean_anomaly_deg":268.5504,"bstar":-4.6718e-5,"rev_number":27992,"period_min":94.106199992958,"perigee_km":474.37931138136,"apogee_km":476.13378012908,"semimajor_km":6853.3935457552,"source":"CELESTRAK","updated_at":"2026-05-25T13:38:16.679091Z"}}}